Location: Alfortville
(48.8058°N, 2.4204°E)
Time: 20:19:39
(UTC+00:00)

deb Chang Zheng 4 - Pass Details

Date: 02 June 2022
Orbit: 582 x 599 km, 98.6° (Epoch: 29 June)

Event Time Altitude Azimuth Distance (km) Brightness Sun altitude
Rises 20:38:43 0° 221° (SW) 2,797 6.9 -7.3°
Reaches altitude 10° 20:43:11 10° 267° (W) 1,910 6.7 -7.8°
Maximum altitude 20:43:34 10° 273° (W) 1,904 6.8 -7.9°
Drops below altitude 10° 20:43:57 10° 278° (W) 1,912 6.9 -7.9°
Sets 20:48:29 0° 324° (NW) 2,827 9.3 -8.4°
